EW9592 Weather Reports


Display with metric or nautical units.
time (UTC)temp
F
wind
direction
speed
MPH
gust
MPH
rain 1hr
in
rain 24hr
in
rain mn
in
humidity
%
barometer
mb
20260505031554 61 301 0.0 0.0 0.00 0.10 0.10 81 1007.8
20260505030045 61 273 0.0 0.0 0.00 0.10 0.10 82 1007.6
20260505024556 62 269 0.0 0.0 0.00 0.10 0.10 81 1007.4
20260505023044 62 268 0.0 3.0 0.00 0.10 0.10 80 1007.1
20260505021547 62 145 0.0 0.0 0.00 0.10 0.10 79 1006.9
20260505020044 63 145 0.0 0.0 0.00 0.10 0.10 78 1006.7
20260505014601 63 144 0.0 0.0 0.00 0.10 0.10 77 1006.2
20260505013042 64 143 0.0 1.0 0.00 0.10 0.10 76 1006.0
20260505011553 65 238 0.0 0.0 0.00 0.10 0.10 74 1006.0
20260505010041 67 236 0.0 0.0 0.00 0.10 0.10 72 1006.1
20260505004543 68 236 0.0 0.0 0.00 0.10 0.10 70 1006.1
20260505003040 69 156 0.0 3.0 0.00 0.10 0.10 66 1006.2
20260505001540 70 231 0.0 0.0 0.00 0.10 0.10 66 1006.2
20260505000051 71 228 0.0 2.0 0.00 0.10 0.10 63 1006.2
20260504234546 72 134 0.0 1.0 0.00 0.10 0.10 60 1006.2
20260504233052 73 127 0.0 1.0 0.00 0.10 0.10 59 1006.5
20260504231537 74 127 0.0 5.0 0.00 0.10 0.10 55 1006.9
20260504230035 75 246 0.0 3.0 0.00 0.10 0.10 54 1007.2
20260504224531 76 224 0.0 5.0 0.00 0.10 0.10 52 1007.3
20260504223049 76 197 0.0 4.0 0.00 0.10 0.10 49 1007.4
20260504221531 77 259 0.0 2.0 0.00 0.10 0.10 51 1007.5
20260504220027 77 236 0.0 5.0 0.00 0.10 0.10 51 1007.7
20260504214530 77 231 0.0 4.0 0.00 0.10 0.10 53 1007.6
20260504213037 77 203 1.0 5.0 0.00 0.10 0.10 49 1007.7
20260504211532 77 114 2.0 9.0 0.00 0.10 0.10 49 1008.0
20260504210024 78 108 1.0 7.0 0.00 0.10 0.10 48 1008.0
20260504204536 78 174 0.0 4.0 0.00 0.10 0.10 47 1007.9
20260504203025 78 130 1.0 8.0 0.00 0.10 0.10 46 1008.0
20260504201521 78 184 1.0 9.0 0.00 0.10 0.10 45 1007.9
20260504200023 79 34 2.0 7.0 0.00 0.10 0.10 46 1008.1
20260504194518 79 326 0.0 4.0 0.00 0.10 0.10 47 1008.3
20260504193017 78 338 0.0 5.0 0.00 0.10 0.10 48 1008.5
20260504191514 78 17 0.0 6.0 0.00 0.10 0.10 50 1008.7
20260504190014 78 330 2.0 11.0 0.00 0.10 0.10 48 1009.0
20260504184508 77 11 2.0 5.0 0.00 0.10 0.10 50 1009.0
20260504183004 76 89 1.0 4.0 0.00 0.10 0.10 53 1009.1
20260504181502 75 126 2.0 7.0 0.00 0.10 0.10 54 1009.1
20260504180001 75 243 0.0 6.0 0.00 0.10 0.10 55 1009.1
20260504174618 75 127 1.0 11.0 0.00 0.10 0.10 54 1009.1
20260504173101 74 139 3.0 10.0 0.00 0.10 0.10 56 1009.2
20260504171556 74 11 0.0 5.0 0.00 0.10 0.10 55 1009.3
20260504081544 53 200 0.0 0.0 0.00 0.00 0.00 75 1011.0
20260504050018 53 165 0.0 2.0 0.00 0.00 0.00 74 1013.1
20260504044515 52 138 0.0 5.0 0.00 0.00 0.00 71 1013.1
20260504043010 52 152 0.0 1.0 0.00 0.00 0.00 76 1013.2
20260504041504 52 208 0.0 0.0 0.00 0.00 0.00 77 1013.1
20260504040116 51 114 0.0 1.0 0.00 0.00 0.00 78 1013.4
20260504034634 50 139 0.0 0.0 0.00 0.00 0.00 79 1013.5
20260504033059 50 145 0.0 1.0 0.00 0.00 0.00 80 1013.6